| time (UTC) | temp C | wind direction | speed KPH | gust KPH | rain 1hr cm | rain 24hr cm | rain mn cm | humidity % | barometer mb |
| 20260902060834 | 20 | 167 | 0.0 | 0.0 | 0.00 | 0.00 | 0.00 | 95 | 1018.6 |
| 20260902060329 | 20 | 167 | 0.0 | 0.0 | 0.00 | 0.00 | 0.00 | 95 | 1018.7 |
| 20260902055825 | 20 | 167 | 0.0 | 0.0 | 0.00 | 0.00 | 0.00 | 95 | 1018.7 |
| 20260902055321 | 21 | 166 | 0.0 | 0.0 | 0.00 | 0.00 | 0.00 | 95 | 1018.5 |
| 20260902054816 | 21 | 152 | 0.0 | 0.0 | 0.00 | 0.00 | 0.00 | 95 | 1018.5 |
| 20260902054312 | 21 | 151 | 0.0 | 0.0 | 0.00 | 0.00 | 0.00 | 95 | 1018.3 |
| 20260902053807 | 21 | 140 | 0.0 | 0.0 | 0.00 | 0.00 | 0.00 | 95 | 1018.5 |
| 20260902053301 | 20 | 136 | 0.0 | 0.0 | 0.00 | 0.00 | 0.00 | 95 | 1018.5 |
| 20260902052800 | 20 | 144 | 0.0 | 0.0 | 0.00 | 0.00 | 0.00 | 95 | 1018.6 |
| 20260902052255 | 20 | 158 | 0.0 | 0.0 | 0.00 | 0.00 | 0.00 | 95 | 1018.7 |
| 20260902051749 | 20 | 129 | 0.0 | 0.0 | 0.00 | 0.00 | 0.00 | 95 | 1018.3 |
| 20260902051244 | 20 | 155 | 0.0 | 0.0 | 0.00 | 0.00 | 0.00 | 95 | 1018.4 |
| 20260902050739 | 20 | 156 | 0.0 | 0.0 | 0.00 | 0.00 | 0.00 | 95 | 1018.5 |
| 20260902050228 | 20 | 155 | 0.0 | 0.0 | 0.00 | 0.00 | 0.00 | 95 | 1018.3 |
| 20260902045728 | 20 | 154 | 0.0 | 0.0 | 0.00 | 0.00 | 0.00 | 95 | 1018.3 |
| 20260902045224 | 21 | 153 | 0.0 | 0.0 | 0.00 | 0.00 | 0.00 | 95 | 1018.2 |
| 20260902044720 | 21 | 153 | 0.0 | 0.0 | 0.00 | 0.00 | 0.00 | 95 | 1018.2 |
| 20260902044215 | 21 | 153 | 0.0 | 0.0 | 0.00 | 0.00 | 0.00 | 95 | 1018.2 |
| 20260902043710 | 21 | 151 | 0.0 | 0.0 | 0.00 | 0.00 | 0.00 | 95 | 1018.1 |
| 20260902043205 | 21 | 149 | 0.0 | 0.0 | 0.00 | 0.00 | 0.00 | 95 | 1018.3 |
| 20260902042659 | 21 | 149 | 0.0 | 0.0 | 0.00 | 0.00 | 0.00 | 95 | 1018.0 |
| 20260902042154 | 21 | 156 | 0.0 | 0.0 | 0.00 | 0.00 | 0.00 | 95 | 1017.8 |
| 20260902041654 | 21 | 156 | 0.0 | 0.0 | 0.00 | 0.00 | 0.00 | 95 | 1018.0 |
| 20260902041148 | 21 | 156 | 0.0 | 0.0 | 0.00 | 0.00 | 0.00 | 95 | 1018.0 |
| 20260902040642 | 21 | 156 | 0.0 | 0.0 | 0.00 | 0.00 | 0.00 | 95 | 1017.7 |
| 20260902040138 | 21 | 156 | 0.0 | 0.0 | 0.00 | 0.00 | 0.00 | 95 | 1017.9 |
| 20260902035636 | 21 | 181 | 0.0 | 0.0 | 0.00 | 1.09 | 1.09 | 95 | 1017.9 |
| 20260902035132 | 21 | 183 | 0.0 | 0.0 | 0.00 | 1.09 | 1.09 | 95 | 1018.0 |
| 20260902034631 | 21 | 183 | 0.0 | 0.0 | 0.00 | 1.09 | 1.09 | 95 | 1017.7 |
| 20260902034130 | 21 | 183 | 0.0 | 0.0 | 0.00 | 1.09 | 1.09 | 95 | 1017.6 |
| 20260902033630 | 21 | 182 | 0.0 | 0.0 | 0.00 | 1.09 | 1.09 | 95 | 1017.8 |
| 20260902033125 | 21 | 167 | 0.0 | 0.0 | 0.00 | 1.09 | 1.09 | 95 | 1017.7 |
| 20260902032623 | 21 | 168 | 0.0 | 0.0 | 0.00 | 1.09 | 1.09 | 95 | 1017.6 |
| 20260902032118 | 21 | 162 | 0.0 | 0.0 | 0.00 | 1.09 | 1.09 | 95 | 1017.6 |
| 20260902031613 | 21 | 138 | 0.0 | 0.0 | 0.00 | 1.09 | 1.09 | 95 | 1017.8 |
| 20260902031110 | 21 | 146 | 0.0 | 0.0 | 0.00 | 1.09 | 1.09 | 95 | 1017.8 |
| 20260902030609 | 21 | 147 | 0.0 | 0.0 | 0.00 | 1.09 | 1.09 | 95 | 1017.9 |
| 20260902030103 | 21 | 147 | 0.0 | 0.0 | 0.00 | 1.09 | 1.09 | 95 | 1017.9 |
| 20260902025558 | 21 | 147 | 0.0 | 0.0 | 0.00 | 1.09 | 1.09 | 95 | 1017.8 |
| 20260902025053 | 21 | 148 | 0.0 | 0.0 | 0.00 | 1.09 | 1.09 | 95 | 1018.0 |
| 20260902024549 | 21 | 149 | 0.0 | 0.0 | 0.00 | 1.09 | 1.09 | 95 | 1017.7 |
| 20260902024048 | 21 | 120 | 0.0 | 0.0 | 0.00 | 1.09 | 1.09 | 95 | 1017.8 |
| 20260902023544 | 21 | 154 | 0.0 | 0.0 | 0.00 | 1.09 | 1.09 | 95 | 1018.0 |
| 20260902023039 | 21 | 158 | 0.0 | 0.0 | 0.00 | 1.09 | 1.09 | 95 | 1017.8 |
| 20260902022539 | 21 | 158 | 0.0 | 0.0 | 0.00 | 1.09 | 1.09 | 95 | 1017.9 |
| 20260902022035 | 21 | 158 | 0.0 | 0.0 | 0.00 | 1.09 | 1.09 | 95 | 1017.7 |
| 20260902021530 | 21 | 152 | 0.0 | 0.0 | 0.00 | 1.09 | 1.09 | 95 | 1017.8 |
| 20260902021031 | 21 | 146 | 0.0 | 0.0 | 0.00 | 1.09 | 1.09 | 95 | 1017.7 |
| 20260902020526 | 21 | 144 | 0.0 | 0.0 | 0.00 | 1.09 | 1.09 | 95 | 1017.5 |
| 20260902020022 | 21 | 135 | 0.0 | 0.0 | 0.00 | 1.09 | 1.09 | 95 | 1017.6 |
| 20260902015518 | 21 | 136 | 0.0 | 0.0 | 0.00 | 1.09 | 1.09 | 95 | 1017.5 |
| 20260902015013 | 21 | 136 | 0.0 | 0.0 | 0.00 | 1.09 | 1.09 | 95 | 1017.8 |
| 20260902014510 | 21 | 136 | 0.0 | 0.0 | 0.00 | 1.09 | 1.09 | 95 | 1017.7 |
| 20260902014004 | 21 | 137 | 0.0 | 0.0 | 0.00 | 1.09 | 1.09 | 95 | 1017.5 |
| 20260902013458 | 21 | 136 | 0.0 | 0.0 | 0.00 | 1.09 | 1.09 | 95 | 1017.3 |
| 20260902012953 | 21 | 136 | 0.0 | 0.0 | 0.00 | 1.09 | 1.09 | 95 | 1017.3 |
| 20260902012444 | 21 | 136 | 0.0 | 0.0 | 0.00 | 1.09 | 1.09 | 95 | 1017.3 |
| 20260902011939 | 21 | 137 | 0.0 | 0.0 | 0.00 | 1.09 | 1.09 | 95 | 1017.5 |
| 20260902011435 | 22 | 137 | 0.0 | 0.0 | 0.00 | 1.09 | 1.09 | 95 | 1017.2 |
| 20260902010934 | 22 | 137 | 0.0 | 0.0 | 0.00 | 1.09 | 1.09 | 95 | 1017.1 |
| 20260902010429 | 22 | 137 | 0.0 | 0.0 | 0.00 | 1.09 | 1.09 | 95 | 1017.1 |
| 20260902005928 | 22 | 137 | 0.0 | 0.0 | 0.00 | 1.09 | 1.09 | 95 | 1017.0 |
| 20260902005427 | 22 | 137 | 0.0 | 0.0 | 0.00 | 1.09 | 1.09 | 95 | 1017.1 |
| 20260902004923 | 22 | 137 | 0.0 | 0.0 | 0.00 | 1.09 | 1.09 | 95 | 1016.8 |
| 20260902004422 | 22 | 137 | 0.0 | 0.0 | 0.00 | 1.09 | 1.09 | 95 | 1016.5 |
| 20260902003918 | 22 | 137 | 0.0 | 0.0 | 0.00 | 1.09 | 1.09 | 95 | 1016.9 |
| 20260902003413 | 22 | 137 | 0.0 | 0.0 | 0.00 | 1.09 | 1.09 | 95 | 1016.8 |
| 20260902002909 | 22 | 137 | 0.0 | 0.0 | 0.00 | 1.09 | 1.09 | 95 | 1016.4 |
| 20260902002408 | 22 | 136 | 0.0 | 0.0 | 0.00 | 1.09 | 1.09 | 95 | 1016.8 |
| 20260902001903 | 22 | 136 | 0.0 | 0.0 | 0.00 | 1.09 | 1.09 | 94 | 1016.2 |
| 20260902001358 | 22 | 144 | 0.0 | 0.0 | 0.00 | 1.09 | 1.09 | 94 | 1016.4 |
| 20260902000854 | 23 | 144 | 0.0 | 0.0 | 0.00 | 1.09 | 1.09 | 94 | 1016.2 |
| 20260902000353 | 23 | 143 | 0.0 | 1.6 | 0.00 | 1.09 | 1.09 | 94 | 1016.3 |
| 20260901235848 | 23 | 150 | 1.6 | 1.6 | 0.00 | 1.09 | 1.09 | 93 | 1016.3 |
| 20260901235343 | 23 | 154 | 0.0 | 0.0 | 0.00 | 1.09 | 1.09 | 93 | 1016.1 |
| 20260901234838 | 23 | 138 | 0.0 | 0.0 | 0.00 | 1.09 | 1.09 | 93 | 1016.1 |
| 20260901234332 | 23 | 131 | 1.6 | 1.6 | 0.00 | 1.09 | 1.09 | 92 | 1016.1 |
| 20260901233827 | 23 | 119 | 1.6 | 1.6 | 0.00 | 1.09 | 1.09 | 92 | 1016.4 |
| 20260901233323 | 23 | 147 | 0.0 | 1.6 | 0.00 | 1.09 | 1.09 | 91 | 1016.1 |
| 20260901232819 | 23 | 154 | 0.0 | 0.0 | 0.00 | 1.09 | 1.09 | 90 | 1016.2 |
| 20260901232313 | 23 | 160 | 0.0 | 0.0 | 0.00 | 1.09 | 1.09 | 90 | 1015.8 |
| 20260901231810 | 24 | 140 | 1.6 | 1.6 | 0.00 | 1.09 | 1.09 | 88 | 1015.7 |
| 20260901231306 | 25 | 142 | 0.0 | 0.0 | 0.00 | 1.09 | 1.09 | 88 | 1016.1 |
| 20260901230802 | 25 | 142 | 0.0 | 0.0 | 0.00 | 1.09 | 1.09 | 87 | 1015.8 |
| 20260901230301 | 25 | 141 | 0.0 | 1.6 | 0.00 | 1.09 | 1.09 | 86 | 1016.0 |
| 20260901225756 | 25 | 149 | 0.0 | 0.0 | 0.00 | 1.09 | 1.09 | 85 | 1016.1 |
| 20260901225250 | 25 | 147 | 1.6 | 1.6 | 0.00 | 1.09 | 1.09 | 85 | 1016.1 |
| 20260901224746 | 26 | 143 | 0.0 | 1.6 | 0.00 | 1.09 | 1.09 | 84 | 1016.2 |
| 20260901224242 | 26 | 237 | 1.6 | 1.6 | 0.00 | 1.09 | 1.09 | 84 | 1016.1 |
| 20260901223738 | 26 | 185 | 1.6 | 1.6 | 0.00 | 1.09 | 1.09 | 83 | 1015.9 |
| 20260901223238 | 26 | 125 | 1.6 | 1.6 | 0.00 | 1.09 | 1.09 | 83 | 1015.9 |
| 20260901222734 | 26 | 85 | 1.6 | 3.2 | 0.00 | 1.09 | 1.09 | 82 | 1015.8 |
| 20260901222230 | 26 | 132 | 1.6 | 1.6 | 0.00 | 1.09 | 1.09 | 82 | 1015.9 |
| 20260901221726 | 26 | 165 | 0.0 | 0.0 | 0.00 | 1.09 | 1.09 | 82 | 1015.9 |
| 20260901221222 | 26 | 188 | 1.6 | 3.2 | 0.00 | 1.09 | 1.09 | 82 | 1016.0 |
| 20260901220720 | 26 | 191 | 0.0 | 0.0 | 0.00 | 1.09 | 1.09 | 82 | 1016.0 |
| 20260901220215 | 26 | 216 | 3.2 | 3.2 | 0.00 | 1.09 | 1.09 | 81 | 1015.9 |
| 20260901215714 | 26 | 302 | 4.8 | 4.8 | 0.00 | 1.09 | 1.09 | 80 | 1016.2 |
| 20260901215208 | 27 | 231 | 3.2 | 3.2 | 0.00 | 1.09 | 1.09 | 80 | 1016.0 |
| 20260901214706 | 27 | 178 | 0.0 | 0.0 | 0.00 | 1.09 | 1.09 | 81 | 1016.0 |
| 20260901214200 | 27 | 149 | 0.0 | 0.0 | 0.00 | 1.09 | 1.09 | 81 | 1015.8 |
| 20260901213655 | 26 | 147 | 0.0 | 0.0 | 0.00 | 1.09 | 1.09 | 83 | 1015.8 |
| 20260901213150 | 26 | 136 | 0.0 | 0.0 | 0.00 | 1.09 | 1.09 | 84 | 1016.0 |
| 20260901212649 | 26 | 26 | 3.2 | 3.2 | 0.00 | 1.09 | 1.09 | 82 | 1015.9 |
| 20260901212145 | 26 | 193 | 0.0 | 0.0 | 0.00 | 1.09 | 1.09 | 83 | 1015.6 |
| 20260901211640 | 26 | 188 | 1.6 | 1.6 | 0.00 | 1.09 | 1.09 | 83 | 1015.7 |
| 20260901211136 | 26 | 129 | 1.6 | 1.6 | 0.00 | 1.09 | 1.09 | 83 | 1015.6 |
| 20260901210632 | 26 | 175 | 0.0 | 0.0 | 0.00 | 1.09 | 1.09 | 84 | 1015.7 |
| 20260901210127 | 26 | 193 | 0.0 | 1.6 | 0.00 | 1.09 | 1.09 | 84 | 1015.7 |
| 20260901205618 | 26 | 189 | 0.0 | 0.0 | 0.00 | 1.09 | 1.09 | 85 | 1015.8 |
| 20260901205117 | 26 | 125 | 0.0 | 1.6 | 0.00 | 1.09 | 1.09 | 85 | 1015.8 |
| 20260901204614 | 26 | 200 | 1.6 | 1.6 | 0.00 | 1.09 | 1.09 | 84 | 1015.7 |
| 20260901204114 | 26 | 168 | 0.0 | 0.0 | 0.00 | 1.09 | 1.09 | 85 | 1015.9 |
| 20260901203613 | 26 | 198 | 1.6 | 3.2 | 0.00 | 1.09 | 1.09 | 84 | 1015.7 |
| 20260901203108 | 26 | 231 | 3.2 | 3.2 | 0.00 | 1.09 | 1.09 | 85 | 1016.1 |
| 20260901202608 | 26 | 194 | 1.6 | 1.6 | 0.00 | 1.09 | 1.09 | 85 | 1015.7 |
| 20260901202104 | 26 | 169 | 0.0 | 0.0 | 0.00 | 1.09 | 1.09 | 86 | 1016.0 |
| 20260901201600 | 26 | 172 | 0.0 | 0.0 | 0.00 | 1.09 | 1.09 | 86 | 1016.0 |
| 20260901201059 | 26 | 169 | 0.0 | 0.0 | 0.00 | 1.09 | 1.09 | 87 | 1015.8 |
| 20260901200558 | 26 | 186 | 0.0 | 0.0 | 0.00 | 1.09 | 1.09 | 86 | 1015.9 |
| 20260901200054 | 26 | 226 | 3.2 | 3.2 | 0.00 | 1.09 | 1.09 | 86 | 1016.1 |
| 20260901195551 | 26 | 230 | 3.2 | 3.2 | 0.00 | 1.09 | 1.09 | 85 | 1016.0 |
| 20260901195046 | 26 | 185 | 0.0 | 0.0 | 0.00 | 1.09 | 1.09 | 85 | 1016.1 |
| 20260901194541 | 26 | 185 | 0.0 | 0.0 | 0.00 | 1.09 | 1.09 | 86 | 1016.1 |
| 20260901194037 | 26 | 184 | 0.0 | 0.0 | 0.00 | 1.09 | 1.09 | 86 | 1016.0 |
| 20260901193536 | 26 | 184 | 0.0 | 1.6 | 0.00 | 1.09 | 1.09 | 86 | 1016.0 |
| 20260901193031 | 26 | 169 | 0.0 | 0.0 | 0.00 | 1.09 | 1.09 | 86 | 1016.1 |
| 20260901192526 | 26 | 185 | 1.6 | 1.6 | 0.00 | 1.09 | 1.09 | 86 | 1016.0 |
| 20260901192022 | 26 | 208 | 1.6 | 1.6 | 0.00 | 1.09 | 1.09 | 86 | 1016.0 |
| 20260901191518 | 26 | 184 | 0.0 | 1.6 | 0.00 | 1.09 | 1.09 | 85 | 1016.0 |
| 20260901191014 | 26 | 195 | 0.0 | 0.0 | 0.00 | 1.09 | 1.09 | 86 | 1015.7 |
| 20260901190509 | 26 | 183 | 0.0 | 0.0 | 0.00 | 1.09 | 1.09 | 87 | 1016.1 |
| 20260901190007 | 26 | 183 | 0.0 | 0.0 | 0.00 | 1.09 | 1.09 | 86 | 1015.9 |
| 20260901185501 | 26 | 170 | 0.0 | 1.6 | 0.00 | 1.09 | 1.09 | 87 | 1015.8 |
| 20260901185000 | 25 | 169 | 0.0 | 0.0 | 0.00 | 1.09 | 1.09 | 87 | 1015.7 |
| 20260901184455 | 26 | 158 | 0.0 | 0.0 | 0.00 | 1.09 | 1.09 | 86 | 1015.7 |
| 20260901183951 | 25 | 183 | 0.0 | 0.0 | 0.00 | 1.09 | 1.09 | 87 | 1015.8 |
| 20260901183445 | 25 | 186 | 0.0 | 0.0 | 0.00 | 1.09 | 1.09 | 87 | 1015.9 |
| 20260901182940 | 25 | 183 | 0.0 | 0.0 | 0.00 | 1.09 | 1.09 | 87 | 1015.7 |
| 20260901182437 | 25 | 229 | 1.6 | 3.2 | 0.00 | 1.09 | 1.09 | 86 | 1015.8 |
| 20260901181931 | 25 | 243 | 4.8 | 4.8 | 0.00 | 1.09 | 1.09 | 85 | 1015.6 |
| 20260901181426 | 26 | 215 | 4.8 | 4.8 | 0.00 | 1.09 | 1.09 | 84 | 1015.9 |
| 20260901180925 | 25 | 174 | 0.0 | 0.0 | 0.00 | 1.09 | 1.09 | 86 | 1015.5 |
| 20260901180424 | 25 | 260 | 4.8 | 4.8 | 0.00 | 1.09 | 1.09 | 86 | 1015.5 |
| 20260901175922 | 25 | 206 | 0.0 | 0.0 | 0.00 | 1.09 | 1.09 | 86 | 1015.7 |
| 20260901175418 | 25 | 185 | 0.0 | 0.0 | 0.00 | 1.09 | 1.09 | 87 | 1015.6 |
| 20260901174913 | 25 | 278 | 3.2 | 3.2 | 0.00 | 1.09 | 1.09 | 87 | 1015.5 |
| 20260901174409 | 25 | 156 | 1.6 | 1.6 | 0.00 | 1.09 | 1.09 | 89 | 1015.4 |
| 20260901173904 | 25 | 166 | 0.0 | 0.0 | 0.00 | 1.09 | 1.09 | 88 | 1015.7 |
| 20260901173359 | 25 | 169 | 1.6 | 1.6 | 0.00 | 1.09 | 1.09 | 88 | 1015.5 |
| 20260901172855 | 25 | 264 | 6.4 | 8.0 | 0.00 | 1.09 | 1.09 | 88 | 1015.5 |
| 20260901172355 | 24 | 298 | 4.8 | 4.8 | 0.00 | 1.09 | 1.09 | 92 | 1015.5 |
| 20260901171853 | 23 | 251 | 3.2 | 3.2 | 0.00 | 1.09 | 1.09 | 95 | 1015.5 |
| 20260901171352 | 23 | 204 | 1.6 | 1.6 | 0.00 | 1.09 | 1.09 | 95 | 1015.7 |
| 20260901170850 | 22 | 162 | 0.0 | 0.0 | 0.00 | 1.09 | 1.09 | 95 | 1015.3 |
| 20260901170346 | 22 | 146 | 0.0 | 0.0 | 0.00 | 1.09 | 1.09 | 95 | 1015.7 |
| 20260901165840 | 22 | 144 | 0.0 | 0.0 | 0.00 | 1.09 | 1.09 | 95 | 1015.7 |
| 20260901165334 | 22 | 276 | 4.8 | 4.8 | 0.00 | 1.09 | 1.09 | 95 | 1015.6 |
| 20260901164831 | 22 | 174 | 1.6 | 3.2 | 0.00 | 1.09 | 1.09 | 95 | 1015.6 |
| 20260901164326 | 22 | 205 | 0.0 | 1.6 | 0.00 | 1.09 | 1.09 | 95 | 1015.6 |
| 20260901163826 | 22 | 151 | 1.6 | 1.6 | 0.00 | 1.09 | 1.09 | 95 | 1015.6 |
| 20260901163321 | 22 | 155 | 0.0 | 0.0 | 0.00 | 1.09 | 1.09 | 95 | 1015.5 |
| 20260901162816 | 22 | 161 | 0.0 | 0.0 | 0.00 | 1.09 | 1.09 | 95 | 1015.8 |
| 20260901162315 | 22 | 156 | 0.0 | 0.0 | 0.00 | 1.09 | 1.09 | 95 | 1016.0 |
| 20260901161814 | 22 | 162 | 0.0 | 0.0 | 0.00 | 1.09 | 1.09 | 95 | 1015.9 |
| 20260901161309 | 21 | 131 | 0.0 | 0.0 | 0.00 | 1.09 | 1.09 | 95 | 1015.9 |
| 20260901160804 | 21 | 138 | 0.0 | 0.0 | 0.00 | 1.09 | 1.09 | 95 | 1015.7 |
| 20260901160300 | 21 | 137 | 0.0 | 0.0 | 0.00 | 1.09 | 1.09 | 95 | 1015.9 |
| 20260901155759 | 21 | 131 | 0.0 | 0.0 | 0.00 | 1.09 | 1.09 | 95 | 1015.9 |
| 20260901155254 | 21 | 156 | 0.0 | 0.0 | 0.00 | 1.09 | 1.09 | 95 | 1015.8 |
| 20260901154749 | 21 | 175 | 0.0 | 0.0 | 0.00 | 1.09 | 1.09 | 95 | 1015.9 |
| 20260901154244 | 21 | 173 | 0.0 | 0.0 | 0.00 | 1.09 | 1.09 | 95 | 1015.9 |
| 20260901153740 | 21 | 164 | 0.0 | 0.0 | 0.00 | 1.09 | 1.09 | 95 | 1015.8 |
| 20260901153239 | 21 | 171 | 0.0 | 0.0 | 0.00 | 1.09 | 1.09 | 95 | 1015.9 |
| 20260901152738 | 21 | 147 | 0.0 | 0.0 | 0.00 | 1.09 | 1.09 | 95 | 1015.9 |
| 20260901152237 | 21 | 146 | 0.0 | 0.0 | 0.00 | 1.09 | 1.09 | 95 | 1016.1 |
| 20260901151733 | 21 | 138 | 0.0 | 0.0 | 0.00 | 1.09 | 1.09 | 95 | 1016.1 |
| 20260901151232 | 21 | 157 | 0.0 | 0.0 | 0.00 | 1.09 | 1.09 | 95 | 1016.2 |
| 20260901150726 | 21 | 157 | 0.0 | 0.0 | 0.00 | 1.09 | 1.09 | 95 | 1016.2 |
| 20260901150225 | 21 | 157 | 0.0 | 0.0 | 0.00 | 1.09 | 1.09 | 95 | 1016.0 |
| 20260901145723 | 21 | 165 | 0.0 | 0.0 | 0.00 | 1.09 | 1.09 | 95 | 1016.0 |
| 20260901145222 | 21 | 236 | 0.0 | 0.0 | 0.00 | 1.09 | 1.09 | 95 | 1016.2 |
| 20260901144718 | 21 | 150 | 0.0 | 0.0 | 0.00 | 1.09 | 1.09 | 95 | 1016.0 |
| 20260901144213 | 21 | 150 | 0.0 | 0.0 | 0.00 | 1.09 | 1.09 | 95 | 1016.0 |
| 20260901143708 | 21 | 172 | 0.0 | 0.0 | 0.00 | 1.09 | 1.09 | 95 | 1016.0 |
| 20260901143205 | 21 | 170 | 0.0 | 0.0 | 0.00 | 1.09 | 1.09 | 95 | 1015.8 |
| 20260901142701 | 20 | 142 | 1.6 | 3.2 | 0.00 | 1.09 | 1.09 | 95 | 1015.9 |
| 20260901142159 | 21 | 166 | 1.6 | 3.2 | 0.00 | 1.09 | 1.09 | 95 | 1015.9 |
| 20260901141654 | 21 | 173 | 0.0 | 0.0 | 0.00 | 1.09 | 1.09 | 95 | 1015.9 |
| 20260901141149 | 20 | 147 | 0.0 | 0.0 | 0.00 | 1.09 | 1.09 | 95 | 1015.6 |
| 20260901140648 | 20 | 159 | 0.0 | 0.0 | 0.00 | 1.09 | 1.09 | 95 | 1015.6 |
| 20260901140146 | 20 | 163 | 0.0 | 0.0 | 0.00 | 1.09 | 1.09 | 95 | 1015.9 |
| 20260901135642 | 20 | 137 | 0.0 | 0.0 | 0.00 | 1.09 | 1.09 | 95 | 1015.9 |
| 20260901135136 | 20 | 163 | 0.0 | 0.0 | 0.00 | 1.09 | 1.09 | 95 | 1016.0 |
| 20260901134633 | 20 | 126 | 1.6 | 1.6 | 0.00 | 1.09 | 1.09 | 95 | 1015.8 |
| 20260901134127 | 20 | 147 | 0.0 | 0.0 | 0.00 | 1.09 | 1.09 | 95 | 1015.9 |
| 20260901133627 | 20 | 127 | 0.0 | 1.6 | 0.00 | 1.09 | 1.09 | 95 | 1015.9 |
| 20260901133125 | 20 | 144 | 0.0 | 0.0 | 0.00 | 1.09 | 1.09 | 95 | 1016.1 |
| 20260901132620 | 20 | 148 | 0.0 | 0.0 | 0.00 | 1.09 | 1.09 | 95 | 1016.1 |
| 20260901132119 | 20 | 120 | 1.6 | 1.6 | 0.00 | 1.09 | 1.09 | 95 | 1016.3 |
| 20260901131620 | 20 | 166 | 0.0 | 0.0 | 0.00 | 1.09 | 1.09 | 95 | 1016.5 |
| 20260901131114 | 20 | 160 | 0.0 | 0.0 | 0.00 | 1.09 | 1.09 | 95 | 1016.0 |
| 20260901130610 | 20 | 141 | 0.0 | 1.6 | 0.00 | 1.09 | 1.09 | 95 | 1016.2 |
| 20260901130108 | 20 | 136 | 1.6 | 1.6 | 0.00 | 1.09 | 1.09 | 95 | 1016.3 |
| 20260901125606 | 20 | 134 | 0.0 | 0.0 | 0.00 | 1.09 | 1.09 | 95 | 1016.3 |
| 20260901125101 | 20 | 125 | 0.0 | 0.0 | 0.00 | 1.09 | 1.09 | 95 | 1016.2 |
| 20260901124556 | 20 | 135 | 0.0 | 1.6 | 0.00 | 1.09 | 1.09 | 95 | 1016.0 |
| 20260901124051 | 20 | 130 | 0.0 | 0.0 | 0.00 | 1.09 | 1.09 | 95 | 1016.2 |
| 20260901123546 | 19 | 119 | 1.6 | 1.6 | 0.00 | 1.09 | 1.09 | 95 | 1016.7 |
| 20260901123045 | 19 | 127 | 3.2 | 3.2 | 0.00 | 1.09 | 1.09 | 95 | 1016.8 |
| 20260901122543 | 19 | 154 | 0.0 | 1.6 | 0.00 | 1.09 | 1.09 | 95 | 1016.8 |
| 20260901122037 | 19 | 131 | 0.0 | 0.0 | 0.00 | 1.09 | 1.09 | 95 | 1016.9 |
| 20260901121532 | 19 | 177 | 0.0 | 0.0 | 0.00 | 1.09 | 1.09 | 95 | 1017.1 |
| 20260901121028 | 19 | 150 | 0.0 | 0.0 | 0.00 | 1.09 | 1.09 | 95 | 1016.8 |
| 20260901120527 | 19 | 124 | 0.0 | 0.0 | 0.00 | 1.09 | 1.09 | 95 | 1016.8 |
| 20260901120023 | 19 | 97 | 0.0 | 0.0 | 0.00 | 1.09 | 1.09 | 95 | 1016.5 |
| 20260901115518 | 19 | 169 | 0.0 | 0.0 | 0.00 | 1.09 | 1.09 | 95 | 1016.7 |
| 20260901115015 | 18 | 138 | 0.0 | 0.0 | 0.00 | 1.09 | 1.09 | 95 | 1016.5 |
| 20260901114511 | 18 | 136 | 0.0 | 0.0 | 0.18 | 1.09 | 1.09 | 95 | 1016.8 |
| 20260901114009 | 18 | 116 | 3.2 | 3.2 | 0.30 | 1.09 | 1.09 | 95 | 1016.4 |
| 20260901113508 | 18 | 155 | 0.0 | 0.0 | 0.61 | 1.07 | 1.07 | 95 | 1016.5 |
| 20260901113004 | 18 | 164 | 0.0 | 0.0 | 4.45 | 1.04 | 1.04 | 95 | 1016.9 |
| 20260901112458 | 18 | 165 | 0.0 | 0.0 | 3.96 | 0.97 | 0.97 | 95 | 1016.9 |
| 20260901111954 | 18 | 167 | 0.0 | 0.0 | 0.00 | 0.30 | 0.30 | 95 | 1017.0 |
| 20260901111452 | 18 | 179 | 0.0 | 0.0 | 0.00 | 0.30 | 0.30 | 95 | 1017.1 |
| 20260901110950 | 18 | 200 | 0.0 | 0.0 | 0.00 | 0.30 | 0.30 | 95 | 1016.7 |
| 20260901110446 | 18 | 149 | 0.0 | 0.0 | 0.00 | 0.30 | 0.30 | 95 | 1016.3 |
| 20260901105942 | 18 | 149 | 0.0 | 0.0 | 0.13 | 0.30 | 0.30 | 95 | 1016.2 |
| 20260901105438 | 18 | 146 | 0.0 | 0.0 | 0.30 | 0.30 | 0.30 | 95 | 1016.1 |
| 20260901104933 | 18 | 230 | 1.6 | 3.2 | 0.18 | 0.28 | 0.28 | 95 | 1016.3 |
| 20260901104428 | 18 | 165 | 0.0 | 0.0 | 0.00 | 0.25 | 0.25 | 95 | 1016.4 |
| 20260901103923 | 18 | 169 | 0.0 | 0.0 | 0.43 | 0.25 | 0.25 | 95 | 1016.3 |
| 20260901103418 | 18 | 161 | 0.0 | 0.0 | 0.79 | 0.25 | 0.25 | 95 | 1016.4 |
| 20260901102913 | 18 | 151 | 0.0 | 0.0 | 0.18 | 0.15 | 0.15 | 95 | 1016.3 |
| 20260901102413 | 18 | 152 | 0.0 | 0.0 | 0.00 | 0.13 | 0.13 | 95 | 1016.1 |
| 20260901101908 | 18 | 146 | 0.0 | 0.0 | 0.00 | 0.13 | 0.13 | 95 | 1016.0 |
| 20260901101403 | 18 | 164 | 0.0 | 0.0 | 0.00 | 0.13 | 0.13 | 95 | 1015.9 |
| 20260901100902 | 18 | 161 | 0.0 | 0.0 | 0.00 | 0.13 | 0.13 | 95 | 1016.0 |
| 20260901100357 | 18 | 155 | 0.0 | 0.0 | 0.00 | 0.13 | 0.13 | 95 | 1016.0 |
| 20260901095851 | 18 | 144 | 0.0 | 0.0 | 0.00 | 0.13 | 0.13 | 95 | 1016.1 |
| 20260901095348 | 18 | 145 | 0.0 | 0.0 | 0.00 | 0.13 | 0.13 | 95 | 1016.2 |
| 20260901094842 | 18 | 140 | 0.0 | 0.0 | 0.00 | 0.13 | 0.13 | 95 | 1016.3 |
| 20260901094337 | 18 | 148 | 0.0 | 0.0 | 0.00 | 0.13 | 0.13 | 95 | 1016.3 |
| 20260901093832 | 18 | 157 | 0.0 | 0.0 | 0.00 | 0.13 | 0.13 | 95 | 1016.0 |
| 20260901093331 | 18 | 150 | 0.0 | 0.0 | 0.00 | 0.13 | 0.13 | 95 | 1016.3 |
| 20260901092827 | 18 | 164 | 0.0 | 0.0 | 0.00 | 0.13 | 0.13 | 95 | 1016.5 |
| 20260901092322 | 18 | 153 | 0.0 | 0.0 | 0.00 | 0.13 | 0.13 | 95 | 1016.4 |
| 20260901091818 | 18 | 140 | 0.0 | 0.0 | 0.00 | 0.13 | 0.13 | 95 | 1016.3 |
| 20260901091313 | 18 | 123 | 0.0 | 0.0 | 0.00 | 0.13 | 0.13 | 95 | 1016.3 |
| 20260901090808 | 18 | 166 | 0.0 | 0.0 | 0.00 | 0.13 | 0.13 | 95 | 1016.5 |
| 20260901090303 | 18 | 165 | 0.0 | 0.0 | 0.00 | 0.13 | 0.13 | 95 | 1016.4 |
| 20260901085759 | 18 | 148 | 0.0 | 0.0 | 0.00 | 0.13 | 0.13 | 95 | 1016.2 |
| 20260901085253 | 18 | 131 | 1.6 | 1.6 | 0.00 | 0.13 | 0.13 | 95 | 1016.7 |
| 20260901084749 | 18 | 132 | 0.0 | 0.0 | 0.00 | 0.13 | 0.13 | 95 | 1016.7 |
| 20260901084245 | 18 | 113 | 0.0 | 1.6 | 0.00 | 0.13 | 0.13 | 95 | 1016.9 |
| 20260901083740 | 18 | 139 | 0.0 | 1.6 | 0.00 | 0.13 | 0.13 | 95 | 1016.8 |
| 20260901083240 | 18 | 144 | 0.0 | 0.0 | 0.13 | 0.13 | 0.13 | 95 | 1016.9 |
| 20260901082738 | 18 | 165 | 0.0 | 0.0 | 0.13 | 0.13 | 0.13 | 95 | 1017.0 |
| 20260901082233 | 18 | 137 | 0.0 | 0.0 | 0.30 | 0.10 | 0.10 | 95 | 1017.0 |
| 20260901081729 | 18 | 157 | 0.0 | 0.0 | 0.48 | 0.10 | 0.10 | 95 | 1017.2 |
| 20260901081229 | 18 | 156 | 0.0 | 0.0 | 0.18 | 0.05 | 0.05 | 95 | 1017.2 |
| 20260901080724 | 18 | 155 | 0.0 | 0.0 | 0.00 | 0.03 | 0.03 | 95 | 1017.3 |
| 20260901080222 | 18 | 145 | 0.0 | 0.0 | 0.00 | 0.03 | 0.03 | 95 | 1017.1 |
| 20260901075717 | 18 | 144 | 0.0 | 0.0 | 0.00 | 0.03 | 0.03 | 95 | 1017.3 |
| 20260901075212 | 18 | 144 | 0.0 | 0.0 | 0.13 | 0.03 | 0.03 | 95 | 1017.1 |
| 20260901074706 | 18 | 153 | 0.0 | 0.0 | 0.13 | 0.03 | 0.03 | 95 | 1017.2 |
| 20260901074201 | 18 | 154 | 0.0 | 0.0 | 0.00 | 0.00 | 0.00 | 95 | 1017.1 |
| 20260901073658 | 18 | 154 | 0.0 | 0.0 | 0.00 | 0.00 | 0.00 | 95 | 1017.2 |
| 20260901073153 | 18 | 153 | 0.0 | 0.0 | 0.00 | 0.00 | 0.00 | 95 | 1017.3 |
| 20260901072648 | 18 | 143 | 0.0 | 0.0 | 0.00 | 0.00 | 0.00 | 95 | 1017.1 |
| 20260901072142 | 18 | 157 | 0.0 | 0.0 | 0.00 | 0.00 | 0.00 | 95 | 1017.1 |
| 20260901071637 | 18 | 157 | 0.0 | 0.0 | 0.00 | 0.00 | 0.00 | 95 | 1017.1 |
| 20260901071137 | 18 | 157 | 0.0 | 0.0 | 0.00 | 0.00 | 0.00 | 95 | 1017.2 |
| 20260901070631 | 18 | 157 | 0.0 | 0.0 | 0.00 | 0.00 | 0.00 | 95 | 1017.4 |
| 20260901070127 | 18 | 157 | 0.0 | 0.0 | 0.00 | 0.00 | 0.00 | 95 | 1017.5 |
| 20260901065620 | 18 | 157 | 0.0 | 0.0 | 0.00 | 0.00 | 0.00 | 95 | 1017.5 |
| 20260901065115 | 18 | 158 | 0.0 | 0.0 | 0.00 | 0.00 | 0.00 | 95 | 1017.4 |
| 20260901064612 | 18 | 160 | 0.0 | 0.0 | 0.00 | 0.00 | 0.00 | 95 | 1017.3 |
| 20260901064108 | 18 | 156 | 0.0 | 0.0 | 0.00 | 0.00 | 0.00 | 95 | 1017.3 |
| 20260901063605 | 18 | 156 | 0.0 | 0.0 | 0.00 | 0.00 | 0.00 | 95 | 1017.4 |
| 20260901063101 | 18 | 157 | 0.0 | 0.0 | 0.00 | 0.00 | 0.00 | 95 | 1017.5 |
| 20260901062556 | 18 | 157 | 0.0 | 0.0 | 0.00 | 0.00 | 0.00 | 95 | 1017.2 |
| 20260901062052 | 18 | 157 | 0.0 | 0.0 | 0.00 | 0.00 | 0.00 | 95 | 1017.5 |
| 20260901061548 | 18 | 151 | 0.0 | 0.0 | 0.00 | 0.00 | 0.00 | 95 | 1017.4 |
| 20260901061043 | 18 | 150 | 0.0 | 0.0 | 0.00 | 0.00 | 0.00 | 95 | 1017.7 |